Time,TemperatureF,DewpointF,PressureIn,WindDirection,WindDirectionDegrees,WindSpeedMPH,WindSpeedGustMPH,Humidity,HourlyPrecipIn,Conditions,Clouds,dailyrainin,SoftwareType,DateUTC
2013-02-17 00:00:00,11.7,9.3,30.15,WNW,293,3.0,4.0,90,0.00,,,0.00,Wunderground v.1.15,2013-02-17 05:00:00,
2013-02-17 00:05:00,11.7,9.3,30.15,WNW,296,3.0,4.0,90,0.00,,,0.00,Wunderground v.1.15,2013-02-17 05:05:00,
2013-02-17 00:10:00,11.5,9.1,30.15,WNW,301,3.0,3.0,90,0.00,,,0.00,Wunderground v.1.15,2013-02-17 05:10:00,
2013-02-17 00:15:00,11.2,8.6,30.15,WNW,297,3.0,3.0,89,0.00,,,0.00,Wunderground v.1.15,2013-02-17 05:15:00,
2013-02-17 00:25:00,10.6,8.0,30.15,WNW,299,2.0,2.0,89,0.00,,,0.00,Wunderground v.1.15,2013-02-17 05:25:00,
2013-02-17 00:30:00,10.3,8.0,30.15,NW,307,2.0,2.0,90,0.00,,,0.00,Wunderground v.1.15,2013-02-17 05:30:00,
2013-02-17 00:35:00,10.1,7.8,30.15,North,349,1.0,2.0,90,0.00,,,0.00,Wunderground v.1.15,2013-02-17 05:35:00,
2013-02-17 00:40:00,9.7,7.4,30.15,NNE,13,1.0,1.0,90,0.00,,,0.00,Wunderground v.1.15,2013-02-17 05:40:00,
2013-02-17 00:45:00,9.5,7.2,30.15,NW,319,0.0,1.0,90,0.00,,,0.00,Wunderground v.1.15,2013-02-17 05:45:00,
2013-02-17 00:50:00,9.8,7.7,30.15,NNW,337,1.0,1.0,91,0.00,,,0.00,Wunderground v.1.15,2013-02-17 05:50:00,
2013-02-17 00:55:00,9.8,7.7,30.15,NW,318,1.0,1.0,91,0.00,,,0.00,Wunderground v.1.15,2013-02-17 05:55:00,
2013-02-17 01:01:00,9.9,7.6,30.16,WNW,285,1.0,1.0,90,0.00,,,0.00,Wunderground v.1.15,2013-02-17 06:01:00,
2013-02-17 01:05:00,10.0,7.9,30.15,NNW,334,1.0,1.0,91,0.00,,,0.00,Wunderground v.1.15,2013-02-17 06:05:00,
2013-02-17 01:10:00,10.3,8.2,30.16,West,274,1.0,2.0,91,0.00,,,0.00,Wunderground v.1.15,2013-02-17 06:10:00,
2013-02-17 01:15:00,10.4,8.3,30.16,NNE,23,1.0,2.0,91,0.00,,,0.00,Wunderground v.1.15,2013-02-17 06:15:00,
2013-02-17 01:20:00,10.7,8.6,30.16,NNE,25,1.0,1.0,91,0.00,,,0.00,Wunderground v.1.15,2013-02-17 06:20:00,
2013-02-17 01:30:00,11.3,9.2,30.16,NNW,342,0.0,1.0,91,0.00,,,0.00,Wunderground v.1.15,2013-02-17 06:30:00,
2013-02-17 01:35:00,11.4,9.3,30.16,NNW,332,0.0,1.0,91,0.00,,,0.00,Wunderground v.1.15,2013-02-17 06:35:00,
2013-02-17 01:40:00,11.5,9.4,30.16,NNW,342,0.0,1.0,91,0.00,,,0.00,Wunderground v.1.15,2013-02-17 06:40:00,
2013-02-17 01:45:00,11.7,9.6,30.16,NNW,333,0.0,1.0,91,0.00,,,0.00,Wunderground v.1.15,2013-02-17 06:45:00,
2013-02-17 01:50:00,11.7,9.6,30.16,WNW,284,0.0,0.0,91,0.00,,,0.00,Wunderground v.1.15,2013-02-17 06:50:00,
2013-02-17 02:01:00,11.8,9.7,30.16,North,349,0.0,0.0,91,0.00,,,0.00,Wunderground v.1.15,2013-02-17 07:01:00,
2013-02-17 02:10:00,12.0,9.9,30.17,North,357,0.0,3.0,91,0.00,,,0.00,Wunderground v.1.15,2013-02-17 07:10:00,
2013-02-17 02:15:00,12.4,10.3,30.16,NNW,342,2.0,3.0,91,0.00,,,0.00,Wunderground v.1.15,2013-02-17 07:15:00,
2013-02-17 02:20:00,12.6,10.2,30.16,North,11,2.0,4.0,90,0.00,,,0.00,Wunderground v.1.15,2013-02-17 07:20:00,
2013-02-17 02:25:00,12.6,10.2,30.16,NW,323,2.0,4.0,90,0.00,,,0.00,Wunderground v.1.15,2013-02-17 07:25:00,
2013-02-17 02:35:00,12.7,10.3,30.16,North,352,1.0,3.0,90,0.00,,,0.00,Wunderground v.1.15,2013-02-17 07:35:00,
2013-02-17 02:40:00,12.7,10.3,30.16,NNW,334,1.0,1.0,90,0.00,,,0.00,Wunderground v.1.15,2013-02-17 07:40:00,
2013-02-17 02:45:00,12.7,10.3,30.16,NNE,16,1.0,1.0,90,0.00,,,0.00,Wunderground v.1.15,2013-02-17 07:45:00,
2013-02-17 02:50:00,12.6,10.2,30.17,NNW,345,1.0,1.0,90,0.00,,,0.00,Wunderground v.1.15,2013-02-17 07:50:00,
2013-02-17 02:55:00,12.6,10.2,30.17,NNW,328,1.0,2.0,90,0.00,,,0.00,Wunderground v.1.15,2013-02-17 07:55:00,
2013-02-17 03:00:00,12.6,10.0,30.17,North,354,1.0,1.0,89,0.00,,,0.00,Wunderground v.1.15,2013-02-17 08:00:00,
2013-02-17 03:10:00,12.4,10.0,30.17,NW,326,0.0,0.0,90,0.00,,,0.00,Wunderground v.1.15,2013-02-17 08:10:00,
2013-02-17 03:15:00,12.3,9.9,30.17,NW,321,0.0,0.0,90,0.00,,,0.00,Wunderground v.1.15,2013-02-17 08:15:00,
2013-02-17 03:20:00,12.1,9.7,30.17,NNE,18,1.0,1.0,90,0.00,,,0.00,Wunderground v.1.15,2013-02-17 08:20:00,
2013-02-17 03:25:00,11.9,9.3,30.17,North,359,1.0,1.0,89,0.00,,,0.00,Wunderground v.1.15,2013-02-17 08:25:00,
2013-02-17 03:30:00,11.7,9.3,30.17,North,6,1.0,1.0,90,0.00,,,0.00,Wunderground v.1.15,2013-02-17 08:30:00,
2013-02-17 03:40:00,11.3,8.9,30.17,NNW,337,0.0,0.0,90,0.00,,,0.00,Wunderground v.1.15,2013-02-17 08:40:00,
2013-02-17 03:45:00,10.9,8.5,30.17,WNW,289,1.0,1.0,90,0.00,,,0.00,Wunderground v.1.15,2013-02-17 08:45:00,
2013-02-17 03:50:00,10.5,8.1,30.17,NNW,332,0.0,0.0,90,0.00,,,0.00,Wunderground v.1.15,2013-02-17 08:50:00,
2013-02-17 03:55:00,10.5,8.4,30.17,NNW,332,0.0,0.0,91,0.00,,,0.00,Wunderground v.1.15,2013-02-17 08:55:00,
2013-02-17 04:00:00,10.2,7.9,30.17,NNW,332,0.0,0.0,90,0.00,,,0.00,Wunderground v.1.15,2013-02-17 09:00:00,
2013-02-17 04:10:00,8.6,5.8,30.17,West,281,0.0,0.0,88,0.00,,,0.00,Wunderground v.1.15,2013-02-17 09:10:00,
2013-02-17 04:15:00,7.7,5.4,30.17,West,281,0.0,0.0,90,0.00,,,0.00,Wunderground v.1.15,2013-02-17 09:15:00,
2013-02-17 04:20:00,7.9,5.8,30.17,WNW,283,0.0,0.0,91,0.00,,,0.00,Wunderground v.1.15,2013-02-17 09:20:00,
2013-02-17 04:25:00,8.0,5.9,30.17,WNW,283,0.0,0.0,91,0.00,,,0.00,Wunderground v.1.15,2013-02-17 09:25:00,
2013-02-17 04:30:00,7.7,5.4,30.17,WNW,283,0.0,0.0,90,0.00,,,0.00,Wunderground v.1.15,2013-02-17 09:30:00,
2013-02-17 04:35:00,7.3,5.0,30.17,WNW,283,0.0,0.0,90,0.00,,,0.00,Wunderground v.1.15,2013-02-17 09:35:00,
2013-02-17 04:40:00,7.2,5.1,30.17,NNW,342,0.0,0.0,91,0.00,,,0.00,Wunderground v.1.15,2013-02-17 09:40:00,
2013-02-17 04:45:00,7.4,5.3,30.17,North,356,0.0,1.0,91,0.00,,,0.00,Wunderground v.1.15,2013-02-17 09:45:00,
2013-02-17 04:50:00,7.7,5.9,30.17,West,271,0.0,0.0,92,0.00,,,0.00,Wunderground v.1.15,2013-02-17 09:50:00,
2013-02-17 04:56:00,5.5,2.0,30.18,WNW,285,0.0,1.0,85,0.00,,,0.00,Wunderground v.1.15,2013-02-17 09:56:00,
2013-02-17 05:01:00,3.9,0.4,30.18,NW,323,0.0,1.0,85,0.00,,,0.00,Wunderground v.1.15,2013-02-17 10:01:00,
2013-02-17 05:10:00,6.9,5.3,30.18,NW,323,1.0,1.0,93,0.00,,,0.00,Wunderground v.1.15,2013-02-17 10:10:00,
2013-02-17 05:15:00,7.3,5.5,30.18,NW,321,1.0,1.0,92,0.00,,,0.00,Wunderground v.1.15,2013-02-17 10:15:00,
2013-02-17 05:20:00,7.3,5.2,30.19,NW,323,1.0,1.0,91,0.00,,,0.00,Wunderground v.1.15,2013-02-17 10:20:00,
2013-02-17 05:25:00,7.6,5.5,30.19,NW,321,1.0,1.0,91,0.00,,,0.00,Wunderground v.1.15,2013-02-17 10:25:00,
2013-02-17 05:30:00,7.3,5.0,30.19,NW,320,1.0,1.0,90,0.00,,,0.00,Wunderground v.1.15,2013-02-17 10:30:00,
2013-02-17 05:35:00,6.6,4.0,30.19,NNW,338,0.0,1.0,89,0.00,,,0.00,Wunderground v.1.15,2013-02-17 10:35:00,
2013-02-17 05:45:00,7.4,5.3,30.19,NW,321,1.0,1.0,91,0.00,,,0.00,Wunderground v.1.15,2013-02-17 10:45:00,
2013-02-17 05:50:00,7.4,5.1,30.19,NNW,342,0.0,1.0,90,0.00,,,0.00,Wunderground v.1.15,2013-02-17 10:50:00,
2013-02-17 05:55:00,7.4,5.3,30.20,NNW,338,1.0,1.0,91,0.00,,,0.00,Wunderground v.1.15,2013-02-17 10:55:00,
2013-02-17 06:01:00,7.7,5.6,30.20,NW,314,1.0,1.0,91,0.00,,,0.00,Wunderground v.1.15,2013-02-17 11:01:00,
2013-02-17 06:10:00,8.1,6.0,30.20,NW,314,1.0,1.0,91,0.00,,,0.00,Wunderground v.1.15,2013-02-17 11:10:00,
2013-02-17 06:20:00,7.8,5.2,30.21,NW,307,0.0,1.0,89,0.00,,,0.00,Wunderground v.1.15,2013-02-17 11:20:00,
2013-02-17 06:25:00,7.4,5.1,30.21,NW,307,1.0,1.0,90,0.00,,,0.00,Wunderground v.1.15,2013-02-17 11:25:00,
2013-02-17 06:30:00,7.0,4.7,30.21,NW,308,1.0,1.0,90,0.00,,,0.00,Wunderground v.1.15,2013-02-17 11:30:00,
2013-02-17 06:35:00,7.3,5.0,30.21,NW,307,0.0,1.0,90,0.00,,,0.00,Wunderground v.1.15,2013-02-17 11:35:00,
2013-02-17 06:40:00,7.3,5.0,30.21,NW,307,0.0,0.0,90,0.00,,,0.00,Wunderground v.1.15,2013-02-17 11:40:00,
2013-02-17 06:50:00,7.3,5.0,30.22,NW,307,0.0,1.0,90,0.00,,,0.00,Wunderground v.1.15,2013-02-17 11:50:00,
2013-02-17 06:55:00,7.3,5.0,30.22,NW,308,0.0,1.0,90,0.00,,,0.00,Wunderground v.1.15,2013-02-17 11:55:00,
2013-02-17 07:01:00,7.0,4.7,30.22,NW,307,0.0,0.0,90,0.00,,,0.00,Wunderground v.1.15,2013-02-17 12:01:00,
2013-02-17 07:10:00,5.3,2.5,30.22,NW,307,0.0,0.0,88,0.00,,,0.00,Wunderground v.1.15,2013-02-17 12:10:00,
2013-02-17 07:15:00,4.1,1.1,30.22,NW,308,0.0,0.0,87,0.00,,,0.00,Wunderground v.1.15,2013-02-17 12:15:00,
2013-02-17 07:25:00,3.7,1.2,30.22,NW,311,0.0,1.0,89,0.00,,,0.00,Wunderground v.1.15,2013-02-17 12:25:00,
2013-02-17 07:30:00,4.5,2.5,30.22,NNW,340,1.0,1.0,91,0.00,,,0.00,Wunderground v.1.15,2013-02-17 12:30:00,
2013-02-17 07:35:00,4.5,2.0,30.22,NE,36,1.0,1.0,89,0.00,,,0.00,Wunderground v.1.15,2013-02-17 12:35:00,
2013-02-17 07:40:00,5.8,3.7,30.22,NE,36,1.0,1.0,91,0.00,,,0.00,Wunderground v.1.15,2013-02-17 12:40:00,
2013-02-17 07:45:00,6.0,3.5,30.23,North,9,0.0,1.0,89,0.00,,,0.00,Wunderground v.1.15,2013-02-17 12:45:00,
2013-02-17 07:55:00,4.1,1.1,30.23,North,9,0.0,0.0,87,0.00,,,0.00,Wunderground v.1.15,2013-02-17 12:55:00,
2013-02-17 08:00:00,4.5,2.0,30.23,NNE,20,0.0,1.0,89,0.00,,,0.00,Wunderground v.1.15,2013-02-17 13:00:00,
2013-02-17 08:10:00,7.3,5.5,30.23,ENE,65,1.0,1.0,92,0.00,,,0.00,Wunderground v.1.15,2013-02-17 13:10:00,
2013-02-17 08:15:00,6.9,3.8,30.24,West,271,0.0,1.0,87,0.00,,,0.00,Wunderground v.1.15,2013-02-17 13:15:00,
2013-02-17 08:20:00,5.1,1.8,30.24,WNW,287,1.0,2.0,86,0.00,,,0.00,Wunderground v.1.15,2013-02-17 13:20:00,
2013-02-17 08:30:00,6.3,4.0,30.24,NE,36,1.0,1.0,90,0.00,,,0.00,Wunderground v.1.15,2013-02-17 13:30:00,
2013-02-17 08:35:00,7.7,5.6,30.25,NE,36,0.0,1.0,91,0.00,,,0.00,Wunderground v.1.15,2013-02-17 13:35:00,
2013-02-17 08:40:00,8.7,6.4,30.25,NE,36,0.0,0.0,90,0.00,,,0.00,Wunderground v.1.15,2013-02-17 13:40:00,
2013-02-17 08:45:00,8.9,6.6,30.25,WNW,297,0.0,1.0,90,0.00,,,0.00,Wunderground v.1.15,2013-02-17 13:45:00,
2013-02-17 08:50:00,9.4,7.1,30.25,WNW,297,0.0,0.0,90,0.00,,,0.00,Wunderground v.1.15,2013-02-17 13:50:00,
2013-02-17 09:00:00,10.6,8.2,30.25,WNW,297,0.0,0.0,90,0.00,,,0.00,Wunderground v.1.15,2013-02-17 14:00:00,
2013-02-17 09:10:00,10.9,8.3,30.25,ESE,103,0.0,0.0,89,0.00,,,0.00,Wunderground v.1.15,2013-02-17 14:10:00,
2013-02-17 09:15:00,11.5,8.9,30.25,ESE,103,0.0,0.0,89,0.00,,,0.00,Wunderground v.1.15,2013-02-17 14:15:00,
2013-02-17 09:20:00,12.3,9.9,30.25,ESE,103,0.0,0.0,90,0.00,,,0.00,Wunderground v.1.15,2013-02-17 14:20:00,
2013-02-17 09:25:00,12.6,9.7,30.25,SE,127,0.0,0.0,88,0.00,,,0.00,Wunderground v.1.15,2013-02-17 14:25:00,
2013-02-17 09:30:00,12.8,9.1,30.25,SE,127,0.0,0.0,85,0.00,,,0.00,Wunderground v.1.15,2013-02-17 14:30:00,
2013-02-17 09:35:00,12.9,9.0,30.25,SE,124,0.0,0.0,84,0.00,,,0.00,Wunderground v.1.15,2013-02-17 14:35:00,
2013-02-17 09:40:00,12.8,8.6,30.26,ESE,105,0.0,1.0,83,0.00,,,0.00,Wunderground v.1.15,2013-02-17 14:40:00,
2013-02-17 09:45:00,13.1,9.4,30.25,South,172,0.0,1.0,85,0.00,,,0.00,Wunderground v.1.15,2013-02-17 14:45:00,
2013-02-17 09:50:00,13.8,9.6,30.26,SSE,158,1.0,1.0,83,0.00,,,0.00,Wunderground v.1.15,2013-02-17 14:50:00,
2013-02-17 09:55:00,14.5,10.3,30.26,SE,139,0.0,1.0,83,0.00,,,0.00,Wunderground v.1.15,2013-02-17 14:55:00,
2013-02-17 10:01:00,14.4,9.6,30.26,East,96,0.0,1.0,81,0.00,,,0.00,Wunderground v.1.15,2013-02-17 15:01:00,
2013-02-17 10:10:00,14.3,10.1,30.26,SE,146,1.0,1.0,83,0.00,,,0.00,Wunderground v.1.15,2013-02-17 15:10:00,
2013-02-17 10:15:00,15.3,10.8,30.26,SSE,163,0.0,1.0,82,0.00,,,0.00,Wunderground v.1.15,2013-02-17 15:15:00,
2013-02-17 10:20:00,16.1,11.3,30.26,SSE,148,0.0,0.0,81,0.00,,,0.00,Wunderground v.1.15,2013-02-17 15:20:00,
2013-02-17 10:25:00,16.6,11.5,30.27,SE,144,0.0,0.0,80,0.00,,,0.00,Wunderground v.1.15,2013-02-17 15:25:00,
2013-02-17 10:35:00,16.9,11.2,30.27,SE,135,0.0,0.0,78,0.00,,,0.00,Wunderground v.1.15,2013-02-17 15:35:00,
2013-02-17 10:40:00,16.8,10.8,30.27,SE,128,0.0,0.0,77,0.00,,,0.00,Wunderground v.1.15,2013-02-17 15:40:00,
2013-02-17 10:45:00,17.3,11.6,30.27,SE,128,0.0,0.0,78,0.00,,,0.00,Wunderground v.1.15,2013-02-17 15:45:00,
2013-02-17 10:50:00,17.5,11.2,30.27,ESE,113,0.0,0.0,76,0.00,,,0.00,Wunderground v.1.15,2013-02-17 15:50:00,
2013-02-17 10:55:00,17.5,11.2,30.27,East,83,0.0,1.0,76,0.00,,,0.00,Wunderground v.1.15,2013-02-17 15:55:00,
2013-02-17 11:01:00,17.3,10.4,30.27,East,97,1.0,1.0,74,0.00,,,0.00,Wunderground v.1.15,2013-02-17 16:01:00,
2013-02-17 11:10:00,17.7,10.2,30.27,ESE,106,1.0,2.0,72,0.00,,,0.00,Wunderground v.1.15,2013-02-17 16:10:00,
2013-02-17 11:15:00,17.8,9.3,30.27,ESE,115,2.0,3.0,69,0.00,,,0.00,Wunderground v.1.15,2013-02-17 16:15:00,
2013-02-17 11:20:00,17.7,8.9,30.27,ESE,117,2.0,2.0,68,0.00,,,0.00,Wunderground v.1.15,2013-02-17 16:20:00,
2013-02-17 11:25:00,17.7,9.2,30.27,East,91,3.0,3.0,69,0.00,,,0.00,Wunderground v.1.15,2013-02-17 16:25:00,
2013-02-17 11:30:00,17.9,9.4,30.27,SW,219,2.0,2.0,69,0.00,,,0.00,Wunderground v.1.15,2013-02-17 16:30:00,
2013-02-17 11:40:00,19.9,10.7,30.27,ESE,104,1.0,1.0,67,0.00,,,0.00,Wunderground v.1.15,2013-02-17 16:40:00,
2013-02-17 11:45:00,20.7,11.5,30.27,South,189,1.0,1.0,67,0.00,,,0.00,Wunderground v.1.15,2013-02-17 16:45:00,
2013-02-17 11:50:00,21.3,11.4,30.28,SE,141,1.0,2.0,65,0.00,,,0.00,Wunderground v.1.15,2013-02-17 16:50:00,
2013-02-17 11:55:00,21.7,12.4,30.28,South,174,1.0,2.0,67,0.00,,,0.00,Wunderground v.1.15,2013-02-17 16:55:00,
2013-02-17 12:01:00,21.8,12.2,30.27,SSW,212,1.0,1.0,66,0.00,,,0.00,Wunderground v.1.15,2013-02-17 17:01:00,
2013-02-17 12:10:00,20.6,11.4,30.27,South,187,2.0,2.0,67,0.00,,,0.00,Wunderground v.1.15,2013-02-17 17:10:00,
2013-02-17 12:15:00,21.5,12.2,30.27,SSE,155,2.0,2.0,67,0.00,,,0.00,Wunderground v.1.15,2013-02-17 17:15:00,
2013-02-17 12:20:00,22.0,12.4,30.27,ESE,121,2.0,3.0,66,0.00,,,0.00,Wunderground v.1.15,2013-02-17 17:20:00,
2013-02-17 12:25:00,21.4,12.1,30.27,SE,128,2.0,4.0,67,0.00,,,0.00,Wunderground v.1.15,2013-02-17 17:25:00,
2013-02-17 12:30:00,21.8,12.2,30.27,SSE,168,2.0,2.0,66,0.00,,,0.00,Wunderground v.1.15,2013-02-17 17:30:00,
2013-02-17 12:35:00,22.5,12.8,30.26,SSE,151,2.0,3.0,66,0.00,,,0.00,Wunderground v.1.15,2013-02-17 17:35:00,
2013-02-17 12:45:00,23.2,12.8,30.26,SSE,163,3.0,5.0,64,0.00,,,0.00,Wunderground v.1.15,2013-02-17 17:45:00,
2013-02-17 12:50:00,23.3,12.6,30.26,SW,226,3.0,3.0,63,0.00,,,0.00,Wunderground v.1.15,2013-02-17 17:50:00,
2013-02-17 12:55:00,24.1,12.6,30.26,SSW,198,3.0,4.0,61,0.00,,,0.00,Wunderground v.1.15,2013-02-17 17:55:00,
2013-02-17 13:00:00,24.6,12.7,30.25,SE,138,3.0,3.0,60,0.00,,,0.00,Wunderground v.1.15,2013-02-17 18:00:00,
2013-02-17 13:10:00,25.1,12.8,30.25,SW,226,2.0,2.0,59,0.00,,,0.00,Wunderground v.1.15,2013-02-17 18:10:00,
2013-02-17 13:20:00,24.2,11.9,30.25,ESE,110,2.0,2.0,59,0.00,,,0.00,Wunderground v.1.15,2013-02-17 18:20:00,
2013-02-17 13:25:00,23.7,11.1,30.25,NE,41,1.0,2.0,58,0.00,,,0.00,Wunderground v.1.15,2013-02-17 18:25:00,
2013-02-17 13:30:00,23.7,11.8,30.25,ENE,71,1.0,2.0,60,0.00,,,0.00,Wunderground v.1.15,2013-02-17 18:30:00,
2013-02-17 13:35:00,23.3,11.8,30.25,SSE,167,1.0,2.0,61,0.00,,,0.00,Wunderground v.1.15,2013-02-17 18:35:00,
2013-02-17 13:40:00,24.2,12.7,30.24,SSE,163,2.0,2.0,61,0.00,,,0.00,Wunderground v.1.15,2013-02-17 18:40:00,
2013-02-17 13:45:00,24.7,12.8,30.24,South,173,3.0,3.0,60,0.00,,,0.00,Wunderground v.1.15,2013-02-17 18:45:00,
2013-02-17 13:50:00,24.6,12.7,30.24,SSE,167,4.0,4.0,60,0.00,,,0.00,Wunderground v.1.15,2013-02-17 18:50:00,
2013-02-17 13:55:00,24.4,13.2,30.24,South,172,3.0,4.0,62,0.00,,,0.00,Wunderground v.1.15,2013-02-17 18:55:00,
2013-02-17 14:01:00,23.8,11.9,30.24,SE,129,3.0,3.0,60,0.00,,,0.00,Wunderground v.1.15,2013-02-17 19:01:00,
2013-02-17 14:10:00,23.5,12.0,30.24,WNW,284,1.0,1.0,61,0.00,,,0.00,Wunderground v.1.15,2013-02-17 19:10:00,
2013-02-17 14:20:00,23.1,12.0,30.23,WSW,249,1.0,1.0,62,0.00,,,0.00,Wunderground v.1.15,2013-02-17 19:20:00,
2013-02-17 14:25:00,22.8,11.7,30.23,ENE,74,2.0,2.0,62,0.00,,,0.00,Wunderground v.1.15,2013-02-17 19:25:00,
2013-02-17 14:30:00,22.7,12.0,30.23,East,94,2.0,2.0,63,0.00,,,0.00,Wunderground v.1.15,2013-02-17 19:30:00,
2013-02-17 14:35:00,22.7,12.0,30.23,ESE,113,1.0,2.0,63,0.00,,,0.00,Wunderground v.1.15,2013-02-17 19:35:00,
2013-02-17 14:40:00,22.7,12.3,30.23,NNE,23,2.0,3.0,64,0.00,,,0.00,Wunderground v.1.15,2013-02-17 19:40:00,
2013-02-17 14:45:00,22.8,12.4,30.23,WNW,283,2.0,3.0,64,0.00,,,0.00,Wunderground v.1.15,2013-02-17 19:45:00,
2013-02-17 14:55:00,23.5,13.1,30.23,SSW,199,1.0,2.0,64,0.00,,,0.00,Wunderground v.1.15,2013-02-17 19:55:00,
2013-02-17 15:01:00,23.7,12.2,30.23,NW,306,1.0,2.0,61,0.00,,,0.00,Wunderground v.1.15,2013-02-17 20:01:00,
2013-02-17 15:10:00,24.1,12.9,30.23,SW,224,1.0,3.0,62,0.00,,,0.00,Wunderground v.1.15,2013-02-17 20:10:00,
2013-02-17 15:15:00,24.1,12.6,30.23,WSW,256,2.0,3.0,61,0.00,,,0.00,Wunderground v.1.15,2013-02-17 20:15:00,
2013-02-17 15:25:00,24.5,13.3,30.23,SW,217,2.0,3.0,62,0.00,,,0.00,Wunderground v.1.15,2013-02-17 20:25:00,
2013-02-17 15:30:00,25.4,13.4,30.23,SW,231,2.0,2.0,60,0.00,,,0.00,Wunderground v.1.15,2013-02-17 20:30:00,
2013-02-17 15:35:00,25.4,13.1,30.22,WSW,248,2.0,2.0,59,0.00,,,0.00,Wunderground v.1.15,2013-02-17 20:35:00,
2013-02-17 15:40:00,24.9,12.2,30.23,West,260,2.0,2.0,58,0.00,,,0.00,Wunderground v.1.15,2013-02-17 20:40:00,
2013-02-17 15:45:00,24.6,12.3,30.23,WNW,300,2.0,4.0,59,0.00,,,0.00,Wunderground v.1.15,2013-02-17 20:45:00,
2013-02-17 15:50:00,24.2,12.3,30.23,WNW,303,2.0,4.0,60,0.00,,,0.00,Wunderground v.1.15,2013-02-17 20:50:00,
2013-02-17 16:00:00,24.2,12.7,30.22,WNW,293,3.0,3.0,61,0.00,,,0.00,Wunderground v.1.15,2013-02-17 21:00:00,
2013-02-17 16:10:00,26.2,14.6,30.22,South,185,3.0,4.0,61,0.00,,,0.00,Wunderground v.1.15,2013-02-17 21:10:00,
2013-02-17 16:15:00,27.1,15.8,30.22,SW,222,3.0,4.0,62,0.00,,,0.00,Wunderground v.1.15,2013-02-17 21:15:00,
2013-02-17 16:20:00,27.1,13.9,30.22,SW,215,4.0,4.0,57,0.00,,,0.00,Wunderground v.1.15,2013-02-17 21:20:00,
2013-02-17 16:30:00,25.9,13.5,30.22,NW,305,4.0,4.0,59,0.00,,,0.00,Wunderground v.1.15,2013-02-17 21:30:00,
2013-02-17 16:35:00,25.6,12.5,30.21,WNW,287,3.0,4.0,57,0.00,,,0.00,Wunderground v.1.15,2013-02-17 21:35:00,
2013-02-17 16:40:00,25.4,12.3,30.21,WNW,292,3.0,3.0,57,0.00,,,0.00,Wunderground v.1.15,2013-02-17 21:40:00,
2013-02-17 16:45:00,26.1,14.1,30.21,SSW,200,2.0,3.0,60,0.00,,,0.00,Wunderground v.1.15,2013-02-17 21:45:00,
2013-02-17 16:50:00,25.7,12.6,30.21,SSW,199,4.0,4.0,57,0.00,,,0.00,Wunderground v.1.15,2013-02-17 21:50:00,
2013-02-17 16:55:00,25.5,12.8,30.21,WSW,255,4.0,5.0,58,0.00,,,0.00,Wunderground v.1.15,2013-02-17 21:55:00,
2013-02-17 17:01:00,25.5,12.4,30.21,WSW,248,4.0,4.0,57,0.00,,,0.00,Wunderground v.1.15,2013-02-17 22:01:00,
2013-02-17 17:10:00,25.9,12.7,30.22,WSW,239,4.0,5.0,57,0.00,,,0.00,Wunderground v.1.15,2013-02-17 22:10:00,
2013-02-17 17:15:00,25.8,13.0,30.22,SW,233,4.0,5.0,58,0.00,,,0.00,Wunderground v.1.15,2013-02-17 22:15:00,
2013-02-17 17:20:00,26.0,13.6,30.22,SSW,205,3.0,3.0,59,0.00,,,0.00,Wunderground v.1.15,2013-02-17 22:20:00,
2013-02-17 17:25:00,25.9,13.1,30.22,SW,226,2.0,3.0,58,0.00,,,0.00,Wunderground v.1.15,2013-02-17 22:25:00,
2013-02-17 17:30:00,26.2,13.8,30.22,SSW,212,1.0,1.0,59,0.00,,,0.00,Wunderground v.1.15,2013-02-17 22:30:00,
2013-02-17 17:35:00,26.4,14.0,30.21,SSW,207,1.0,1.0,59,0.00,,,0.00,Wunderground v.1.15,2013-02-17 22:35:00,
2013-02-17 17:40:00,26.6,13.8,30.21,SSW,194,2.0,2.0,58,0.00,,,0.00,Wunderground v.1.15,2013-02-17 22:40:00,
2013-02-17 17:46:00,26.4,14.0,30.21,SSW,210,1.0,2.0,59,0.00,,,0.00,Wunderground v.1.15,2013-02-17 22:46:00,
2013-02-17 17:55:00,25.4,12.3,30.21,SW,217,2.0,2.0,57,0.00,,,0.00,Wunderground v.1.15,2013-02-17 22:55:00,
2013-02-17 18:00:00,25.1,12.4,30.21,SSW,210,2.0,2.0,58,0.00,,,0.00,Wunderground v.1.15,2013-02-17 23:00:00,
2013-02-17 18:05:00,24.7,12.0,30.21,SW,222,1.0,2.0,58,0.00,,,0.00,Wunderground v.1.15,2013-02-17 23:05:00,
2013-02-17 18:10:00,24.2,11.9,30.20,SSW,205,1.0,1.0,59,0.00,,,0.00,Wunderground v.1.15,2013-02-17 23:10:00,
2013-02-17 18:15:00,23.8,12.3,30.21,SSW,205,0.0,1.0,61,0.00,,,0.00,Wunderground v.1.15,2013-02-17 23:15:00,
2013-02-17 18:20:00,23.2,12.5,30.20,ESE,118,0.0,1.0,63,0.00,,,0.00,Wunderground v.1.15,2013-02-17 23:20:00,
2013-02-17 18:25:00,22.9,12.9,30.20,SE,136,0.0,1.0,65,0.00,,,0.00,Wunderground v.1.15,2013-02-17 23:25:00,
2013-02-17 18:30:00,22.6,13.3,30.20,SE,135,0.0,0.0,67,0.00,,,0.00,Wunderground v.1.15,2013-02-17 23:30:00,
2013-02-17 18:40:00,22.0,13.0,30.20,SE,132,0.0,0.0,68,0.00,,,0.00,Wunderground v.1.15,2013-02-17 23:40:00,
2013-02-17 18:45:00,21.7,13.1,30.20,SSE,150,0.0,0.0,69,0.00,,,0.00,Wunderground v.1.15,2013-02-17 23:45:00,
2013-02-17 18:50:00,21.6,13.0,30.20,SSE,158,0.0,0.0,69,0.00,,,0.00,Wunderground v.1.15,2013-02-17 23:50:00,
2013-02-17 18:55:00,21.5,13.2,30.20,SE,141,0.0,0.0,70,0.00,,,0.00,Wunderground v.1.15,2013-02-17 23:55:00,
2013-02-17 19:01:00,21.6,13.6,30.20,ESE,115,0.0,1.0,71,0.00,,,0.00,Wunderground v.1.15,2013-02-18 00:01:00,
2013-02-17 19:10:00,21.4,13.8,30.20,SE,131,1.0,1.0,72,0.00,,,0.00,Wunderground v.1.15,2013-02-18 00:10:00,
2013-02-17 19:15:00,21.3,13.7,30.20,SE,125,1.0,1.0,72,0.00,,,0.00,Wunderground v.1.15,2013-02-18 00:15:00,
2013-02-17 19:20:00,21.3,13.7,30.20,SE,141,1.0,1.0,72,0.00,,,0.00,Wunderground v.1.15,2013-02-18 00:20:00,
2013-02-17 19:25:00,21.1,13.8,30.20,ESE,121,1.0,1.0,73,0.00,,,0.00,Wunderground v.1.15,2013-02-18 00:25:00,
2013-02-17 19:30:00,21.2,13.9,30.20,ESE,112,0.0,0.0,73,0.00,,,0.00,Wunderground v.1.15,2013-02-18 00:30:00,
2013-02-17 19:35:00,21.1,14.1,30.20,ESE,119,1.0,1.0,74,0.00,,,0.00,Wunderground v.1.15,2013-02-18 00:35:00,
2013-02-17 19:45:00,21.1,14.1,30.20,SE,132,1.0,1.0,74,0.00,,,0.00,Wunderground v.1.15,2013-02-18 00:45:00,
2013-02-17 19:50:00,21.0,14.0,30.20,ESE,122,1.0,1.0,74,0.00,,,0.00,Wunderground v.1.15,2013-02-18 00:50:00,
2013-02-17 19:55:00,20.9,14.5,30.19,ESE,121,1.0,1.0,76,0.00,,,0.00,Wunderground v.1.15,2013-02-18 00:55:00,
2013-02-17 20:01:00,20.8,14.4,30.20,SE,132,1.0,2.0,76,0.00,,,0.00,Wunderground v.1.15,2013-02-18 01:01:00,
2013-02-17 20:10:00,20.9,14.2,30.20,ESE,121,1.0,1.0,75,0.00,,,0.00,Wunderground v.1.15,2013-02-18 01:10:00,
2013-02-17 20:15:00,20.8,14.1,30.20,SE,128,1.0,1.0,75,0.00,,,0.00,Wunderground v.1.15,2013-02-18 01:15:00,
2013-02-17 20:20:00,20.7,14.0,30.20,SE,130,1.0,1.0,75,0.00,,,0.00,Wunderground v.1.15,2013-02-18 01:20:00,
2013-02-17 20:25:00,20.6,13.9,30.20,SE,134,1.0,1.0,75,0.00,,,0.00,Wunderground v.1.15,2013-02-18 01:25:00,
2013-02-17 20:30:00,20.2,13.8,30.20,SSE,163,1.0,1.0,76,0.00,,,0.00,Wunderground v.1.15,2013-02-18 01:30:00,
2013-02-17 20:35:00,20.0,13.6,30.20,SSE,157,0.0,1.0,76,0.00,,,0.00,Wunderground v.1.15,2013-02-18 01:35:00,
2013-02-17 20:40:00,19.8,13.8,30.20,SSE,148,0.0,0.0,77,0.00,,,0.00,Wunderground v.1.15,2013-02-18 01:40:00,
2013-02-17 20:50:00,18.8,12.8,30.20,SE,146,0.0,0.0,77,0.00,,,0.00,Wunderground v.1.15,2013-02-18 01:50:00,
2013-02-17 20:55:00,18.6,13.2,30.20,SSE,156,0.0,1.0,79,0.00,,,0.00,Wunderground v.1.15,2013-02-18 01:55:00,
2013-02-17 21:00:00,19.1,13.4,30.20,SSE,153,0.0,0.0,78,0.00,,,0.00,Wunderground v.1.15,2013-02-18 02:00:00,
2013-02-17 21:10:00,19.4,13.4,30.20,SSE,152,0.0,0.0,77,0.00,,,0.00,Wunderground v.1.15,2013-02-18 02:10:00,
2013-02-17 21:20:00,19.6,13.6,30.20,SSE,155,0.0,1.0,77,0.00,,,0.00,Wunderground v.1.15,2013-02-18 02:20:00,
2013-02-17 21:25:00,19.7,13.7,30.20,SE,143,0.0,1.0,77,0.00,,,0.00,Wunderground v.1.15,2013-02-18 02:25:00,
2013-02-17 21:30:00,19.8,14.0,30.20,SE,142,1.0,1.0,78,0.00,,,0.00,Wunderground v.1.15,2013-02-18 02:30:00,
2013-02-17 21:35:00,20.0,14.2,30.20,ESE,110,1.0,1.0,78,0.00,,,0.00,Wunderground v.1.15,2013-02-18 02:35:00,
2013-02-17 21:40:00,20.0,14.5,30.20,SE,129,1.0,1.0,79,0.00,,,0.00,Wunderground v.1.15,2013-02-18 02:40:00,
2013-02-17 21:45:00,19.9,14.1,30.20,SSE,148,1.0,2.0,78,0.00,,,0.00,Wunderground v.1.15,2013-02-18 02:45:00,
2013-02-17 21:51:00,20.0,14.2,30.20,ESE,121,1.0,1.0,78,0.00,,,0.00,Wunderground v.1.15,2013-02-18 02:51:00,
2013-02-17 21:56:00,20.0,14.5,30.19,ESE,118,1.0,2.0,79,0.00,,,0.00,Wunderground v.1.15,2013-02-18 02:56:00,
2013-02-17 22:01:00,20.0,14.5,30.19,SSE,150,2.0,2.0,79,0.00,,,0.00,Wunderground v.1.15,2013-02-18 03:01:00,
2013-02-17 22:10:00,20.0,14.8,30.20,ESE,115,2.0,3.0,80,0.00,,,0.00,Wunderground v.1.15,2013-02-18 03:10:00,
2013-02-17 22:15:00,20.1,14.9,30.19,SE,128,2.0,3.0,80,0.00,,,0.00,Wunderground v.1.15,2013-02-18 03:15:00,
2013-02-17 22:21:00,20.2,15.0,30.19,SE,141,2.0,2.0,80,0.00,,,0.00,Wunderground v.1.15,2013-02-18 03:21:00,
2013-02-17 22:26:00,20.1,14.9,30.19,SE,141,2.0,2.0,80,0.00,,,0.00,Wunderground v.1.15,2013-02-18 03:26:00,
2013-02-17 22:31:00,20.0,14.5,30.19,SE,130,1.0,2.0,79,0.00,,,0.00,Wunderground v.1.15,2013-02-18 03:31:00,
2013-02-17 22:36:00,20.1,14.3,30.19,SE,136,2.0,2.0,78,0.00,,,0.00,Wunderground v.1.15,2013-02-18 03:36:00,
2013-02-17 22:41:00,20.0,14.2,30.19,SE,130,2.0,2.0,78,0.00,,,0.00,Wunderground v.1.15,2013-02-18 03:41:00,
2013-02-17 22:46:00,20.1,14.3,30.19,SSE,158,2.0,2.0,78,0.00,,,0.00,Wunderground v.1.15,2013-02-18 03:46:00,
2013-02-17 22:55:00,20.2,14.4,30.19,SSE,149,2.0,2.0,78,0.00,,,0.00,Wunderground v.1.15,2013-02-18 03:55:00,
2013-02-17 23:01:00,20.4,14.6,30.19,SE,141,2.0,2.0,78,0.00,,,0.00,Wunderground v.1.15,2013-02-18 04:01:00,
2013-02-17 23:10:00,20.7,14.9,30.19,SE,137,3.0,3.0,78,0.00,,,0.00,Wunderground v.1.15,2013-02-18 04:10:00,
2013-02-17 23:15:00,20.8,15.3,30.18,SE,129,4.0,4.0,79,0.00,,,0.00,Wunderground v.1.15,2013-02-18 04:15:00,
2013-02-17 23:20:00,20.9,15.1,30.18,SE,136,4.0,4.0,78,0.00,,,0.00,Wunderground v.1.15,2013-02-18 04:20:00,
2013-02-17 23:30:00,21.0,15.5,30.18,SE,130,3.0,4.0,79,0.00,,,0.00,Wunderground v.1.15,2013-02-18 04:30:00,
2013-02-17 23:35:00,21.0,15.5,30.18,ESE,108,4.0,5.0,79,0.00,,,0.00,Wunderground v.1.15,2013-02-18 04:35:00,
2013-02-17 23:40:00,21.1,15.3,30.18,SSE,153,4.0,4.0,78,0.00,,,0.00,Wunderground v.1.15,2013-02-18 04:40:00,
2013-02-17 23:45:00,21.0,15.2,30.19,South,177,3.0,4.0,78,0.00,,,0.00,Wunderground v.1.15,2013-02-18 04:45:00,
2013-02-17 23:50:00,21.0,14.9,30.19,SE,134,3.0,3.0,77,0.00,,,0.00,Wunderground v.1.15,2013-02-18 04:50:00,